EW9444 Weather Reports


Display with metric or nautical units.
time (UTC)temp
F
wind
direction
speed
MPH
gust
MPH
rain 1hr
in
rain 24hr
in
rain mn
in
humidity
%
barometer
mb
20191121023119 33 10 0.0 1.0 0.00 0.00 0.00 91 1017.5
20191121021616 33 10 0.0 0.0 0.00 0.00 0.00 91 1017.4
20191121020133 33 10 0.0 0.0 0.00 0.00 0.00 91 1017.3
20191121014636 33 10 0.0 3.0 0.00 0.00 0.00 91 1017.2
20191121013204 33 31 0.0 1.0 0.00 0.00 0.00 91 1017.0
20191121011646 33 28 0.0 1.0 0.00 0.00 0.00 91 1017.0
20191121010144 33 34 0.0 1.0 0.00 0.00 0.00 91 1016.8
20191121004610 33 41 0.0 2.0 0.00 0.00 0.00 91 1016.7
20191121003119 33 32 0.0 2.0 0.00 0.00 0.00 91 1016.6
20191121001612 33 32 0.0 0.0 0.00 0.00 0.00 91 1016.6
20191121000059 33 32 0.0 0.0 0.00 0.00 0.00 91 1016.4
20191120234557 33 32 0.0 1.0 0.00 0.00 0.00 91 1016.2
20191120233045 33 32 0.0 2.0 0.00 0.00 0.00 91 1015.8
20191120231538 33 32 0.0 2.0 0.00 0.00 0.00 91 1015.6
20191120230057 33 34 0.0 1.0 0.00 0.00 0.00 91 1015.4
20191120224527 33 34 0.0 1.0 0.00 0.00 0.00 91 1015.3
20191120223029 33 34 0.0 2.0 0.00 0.00 0.00 92 1015.1
20191120221531 34 38 0.0 1.0 0.00 0.00 0.00 92 1014.8
20191120220013 34 39 0.0 1.0 0.00 0.00 0.00 92 1014.7
20191120214510 34 38 0.0 1.0 0.00 0.00 0.00 92 1014.6
20191120213004 34 41 0.0 3.0 0.00 0.00 0.00 92 1014.4
20191120211504 34 40 1.0 4.0 0.00 0.00 0.00 92 1014.2
20191120210002 34 48 1.0 4.0 0.00 0.00 0.00 92 1014.2
20191120204650 34 38 0.0 4.0 0.00 0.00 0.00 92 1014.1
20191120203114 35 49 0.0 3.0 0.00 0.00 0.00 92 1013.9
20191120201658 35 50 1.0 4.0 0.00 0.00 0.00 92 1013.7
20191120200154 35 53 0.0 3.0 0.00 0.00 0.00 92 1013.6
20191120194638 35 52 0.0 1.0 0.00 0.00 0.00 92 1013.4
20191120193104 35 53 0.0 3.0 0.00 0.00 0.00 92 1013.3
20191120191629 35 48 0.0 1.0 0.00 0.00 0.00 92 1013.2
20191120190144 35 48 0.0 3.0 0.00 0.00 0.00 92 1013.2
20191120184702 34 46 0.0 1.0 0.00 0.00 0.00 92 1013.2
20191120183123 34 46 0.0 3.0 0.00 0.00 0.00 92 1013.1
20191120181654 34 57 0.0 0.0 0.00 0.00 0.00 92 1013.0
20191120180200 34 343 0.0 1.0 0.00 0.00 0.00 92 1013.1
20191120174622 34 343 0.0 1.0 0.00 0.00 0.00 92 1013.1
20191120173133 34 51 0.0 1.0 0.00 0.00 0.00 92 1013.1
20191120171612 34 54 0.0 3.0 0.00 0.00 0.00 92 1013.0
20191120170122 34 45 0.0 3.0 0.00 0.00 0.00 92 1013.0
20191120163125 33 343 0.0 2.0 0.00 0.00 0.00 92 1012.8
20191120161559 33 67 0.0 4.0 0.00 0.00 0.00 92 1012.9
20191120160118 33 50 0.0 4.0 0.00 0.00 0.00 92 1012.8
20191120154607 33 343 1.0 3.0 0.00 0.00 0.00 92 1012.8
20191120153037 33 49 0.0 3.0 0.00 0.00 0.00 92 1013.0
20191120151600 33 69 0.0 4.0 0.00 0.00 0.00 92 1012.9
20191120150100 33 343 0.0 3.0 0.00 0.00 0.00 92 1012.9
20191120144526 33 343 0.0 5.0 0.00 0.00 0.00 92 1012.6
20191120143022 32 343 1.0 4.0 0.00 0.00 0.00 92 1012.6
20191120141527 32 14 0.0 4.0 0.00 0.00 0.00 92 1012.4
20191120140023 32 27 0.0 3.0 0.00 0.00 0.00 92 1012.4
20191120134515 32 24 1.0 4.0 0.00 0.00 0.00 92 1012.5
20191120133045 32 343 1.0 5.0 0.00 0.00 0.00 92 1012.5
20191120131514 32 19 1.0 5.0 0.00 0.00 0.00 92 1012.4
20191120130006 32 16 2.0 5.0 0.00 0.00 0.00 92 1012.4
20191120124506 32 21 0.0 3.0 0.00 0.00 0.00 91 1012.3
20191120123002 33 7 0.0 5.0 0.00 0.00 0.00 90 1012.2
20191120121648 33 3 0.0 3.0 0.00 0.00 0.00 90 1012.1
20191120120132 33 3 0.0 3.0 0.00 0.00 0.00 89 1011.8
20191120114600 33 5 1.0 7.0 0.00 0.00 0.00 89 1011.5
20191120113133 33 21 1.0 6.0 0.00 0.00 0.00 90 1011.3
20191120111614 33 29 3.0 7.0 0.00 0.00 0.00 91 1011.2
20191120110218 33 11 2.0 6.0 0.00 0.00 0.00 91 1011.1
20191120104612 33 34 1.0 7.0 0.00 0.00 0.00 92 1011.0
20191120103059 33 7 3.0 6.0 0.00 0.00 0.00 92 1011.0
20191120101612 33 58 1.0 5.0 0.00 0.00 0.00 92 1010.8
20191120100103 33 343 1.0 8.0 0.00 0.00 0.00 92 1010.7
20191120094600 33 343 0.0 5.0 0.00 0.00 0.00 91 1010.6
20191120093109 33 7 2.0 7.0 0.00 0.00 0.00 91 1010.6
20191120091648 33 52 1.0 3.0 0.00 0.00 0.00 91 1010.5
20191120090043 33 13 2.0 4.0 0.00 0.00 0.00 91 1010.4
20191120084639 33 23 3.0 8.0 0.00 0.00 0.00 91 1010.0
20191120083058 33 13 1.0 5.0 0.00 0.00 0.00 91 1010.0
20191120081536 33 10 1.0 5.0 0.00 0.00 0.00 90 1009.9
20191120080026 33 9 1.0 6.0 0.00 0.00 0.00 90 1010.0
20191120074534 33 18 2.0 5.0 0.00 0.00 0.00 90 1010.0
20191120073036 33 29 2.0 5.0 0.00 0.00 0.00 90 1009.8
20191120071531 33 40 0.0 4.0 0.00 0.00 0.00 90 1009.8
20191120070020 33 17 1.0 4.0 0.00 0.00 0.00 90 1009.7
20191120064515 33 47 1.0 4.0 0.00 0.00 0.00 90 1009.6
20191120063036 33 25 0.0 4.0 0.00 0.00 0.00 90 1009.4
20191120061516 33 27 1.0 3.0 0.00 0.00 0.00 90 1009.2
20191120060019 33 343 1.0 4.0 0.00 0.00 0.00 91 1009.3
20191120054520 33 343 0.0 3.0 0.00 0.00 0.00 90 1009.5
20191120053034 33 343 1.0 4.0 0.00 0.00 0.00 90 1009.4
20191120051534 33 343 2.0 4.0 0.00 0.00 0.00 90 1009.6
20191120050005 33 343 2.0 4.0 0.00 0.00 0.00 91 1009.7
20191120044521 33 343 1.0 4.0 0.00 0.00 0.00 91 1009.7
20191120043013 33 343 0.0 3.0 0.00 0.00 0.00 91 1009.6
20191120041503 33 343 1.0 4.0 0.00 0.00 0.00 91 1009.4
20191120040001 33 343 1.0 4.0 0.00 0.00 0.00 91 1009.6
20191120034814 33 343 0.0 5.0 0.00 0.00 0.00 91 1009.7
20191120033149 33 343 0.0 2.0 0.00 0.00 0.00 91 1009.6
20191120031622 33 343 1.0 3.0 0.00 0.00 0.00 91 1009.6
20191120030329 33 343 1.0 4.0 0.00 0.00 0.00 91 1009.7
20191120024645 33 343 0.0 4.0 0.00 0.00 0.00 91 1009.7